[[{"header":{"parameterUnit":"m.s-1","parameterCategory":1,"la1":30.2991,"la2":30.254,"lo1":-89.0895,"lo2":-89.0444,"dy":0.0017,"dx":0.0017,"nx":28,"ny":28,"refTime":"2024-06-07T09:00:00:Z","depth":0,"parameterNumber":2,"parameterNumberName":"U-component_of_WINDS"},"data":[0,0,0,0,0,0,0,0,0,0,0,0,0,0,0,0,0,0,0,0,0,0,0,0,0,0,0,0,0,0,0,0,0,0,0,0,0,0,0,0,0,0,0,0,0,0,0,0,0,0,0,0,0,0,0,0,0,0,-0.1407,-0.1407,0,-0.1353,-0.1352,-0.1352,-0.1327,-0.1327,-0.1327,-0.1327,-0.1269,-0.1268,-0.1266,0,0,0,0,0,0,0,0,0,0,0,0,0,-0.1487,-0.1486,-0.1407,-0.1407,-0.1406,-0.1353,-0.1352,-0.1351,-0.1327,-0.1327,-0.1327,-0.1327,-0.127,-0.1268,-0.1266,0,0,0,0,0,0,0,0,0,0,0,0,0,-0.1445,-0.1485,-0.1407,-0.1387,-0.1385,-0.1353,-0.1352,-0.1351,-0.1327,-0.1327,-0.1327,-0.1327,-0.127,-0.1268,-0.1266,-0.1249,0,0,-0.1258,-0.1257,0,0,0,0,0,0,0,0,-0.1447,-0.1442,-0.1391,-0.1389,-0.1386,-0.1347,-0.1359,-0.1317,-0.1327,-0.1349,-0.1327,-0.1327,-0.1295,-0.129,-0.128,-0.1247,-0.1244,-0.1258,-0.1257,-0.1256,-0.1255,0,0,0,0,0,0,0,-0.145,-0.1444,-0.1386,-0.139,-0.1387,-0.138,-0.1374,-0.1351,-0.1322,-0.1347,-0.1345,-0.1339,-0.1293,-0.1282,-0.1278,-0.1243,-0.1258,-0.1256,-0.1255,-0.1254,-0.1193,-0.1192,0,0,0,0,0,0,-0.1456,-0.1446,-0.1387,-0.1384,-0.1417,-0.1378,-0.1372,-0.1359,-0.1322,-0.1317,-0.1339,-0.1338,-0.1286,-0.1281,-0.1276,-0.1254,-0.1256,-0.1254,-0.1252,-0.1193,-0.1193,-0.1192,0,0,0,0,0,0,-0.1458,-0.1451,-0.139,-0.1415,-0.1406,-0.1377,-0.1363,-0.1358,-0.1347,-0.1316,-0.1311,-0.1333,-0.1286,-0.128,-0.1256,-0.1252,-0.1252,-0.125,-0.1193,-0.1193,-0.1192,-0.121,0,0,0,0,0,0,-0.1461,-0.1452,-0.1447,-0.1415,-0.1405,-0.1371,-0.1363,-0.1357,-0.1343,-0.1341,-0.1309,-0.1304,-0.1286,-0.126,-0.1254,-0.1249,-0.1248,-0.1193,-0.1193,-0.1193,-0.121,-0.1211,-0.1211,0,0,0,0,0,-0.1464,-0.1453,-0.1446,-0.1439,-0.1397,-0.1371,-0.1365,-0.1345,-0.1343,-0.1336,-0.1316,-0.1305,-0.1253,-0.1258,-0.1251,-0.1245,-0.1193,-0.1193,-0.1193,-0.121,-0.121,-0.1211,0,0,0,0,0,0,-0.1485,-0.1449,-0.1441,-0.142,-0.1399,-0.1367,-0.1358,-0.1347,-0.1326,-0.1325,-0.13,-0.1293,-0.1271,-0.1255,-0.1261,-0.1226,-0.1222,-0.122,-0.1238,-0.1238,-0.1239,-0.1243,-0.1246,0,0,0,0,0,-0.1488,-0.147,-0.1439,-0.1424,-0.1414,-0.1388,-0.1376,-0.1362,-0.1339,-0.1329,-0.1308,-0.1285,-0.1263,-0.125,-0.1228,-0.1207,-0.1199,-0.1199,-0.12,-0.1201,-0.12,-0.1186,-0.1186,-0.1191,-0.1191,-0.1191,0,0,-0.1492,-0.147,-0.1461,-0.1428,-0.1409,-0.1391,-0.138,-0.1361,-0.1347,-0.1326,-0.1303,-0.1286,-0.1259,-0.1236,-0.1225,-0.1222,-0.1196,-0.12,-0.1201,-0.1199,-0.1186,-0.1185,-0.1185,-0.1191,-0.1191,-0.1191,0,0,-0.1491,-0.1473,-0.1458,-0.144,-0.1413,-0.1396,-0.1392,-0.1362,-0.135,-0.1326,-0.131,-0.1292,-0.1256,-0.1237,-0.1222,-0.1213,-0.1201,-0.1207,-0.121,-0.1197,-0.1197,-0.1196,-0.1193,-0.1192,-0.1205,-0.1205,-0.1205,0,-0.15,-0.1473,-0.1452,-0.1434,-0.1419,-0.14,-0.1384,-0.1367,-0.1334,-0.1324,-0.1321,-0.1275,-0.1255,-0.1227,-0.1225,-0.1214,-0.1209,-0.121,-0.1199,-0.1198,-0.1197,-0.1193,-0.1192,-0.1206,-0.1206,-0.1206,-0.1206,0,-0.1485,-0.1466,-0.1457,-0.1426,-0.141,-0.1393,-0.1369,-0.1355,-0.1343,-0.1325,-0.1301,-0.1276,-0.1249,-0.1241,-0.1229,-0.1212,-0.1211,-0.1204,-0.1199,-0.1198,-0.1194,-0.1192,-0.1207,-0.1207,-0.1207,-0.1207,0,0,-0.1497,-0.1454,-0.1451,-0.1436,-0.1405,-0.1389,-0.137,-0.1344,-0.1333,-0.1311,-0.1294,-0.1263,-0.1256,-0.124,-0.1225,-0.1214,-0.1207,-0.1208,-0.1207,-0.1208,-0.1186,-0.1191,-0.119,-0.1199,-0.1199,-0.1198,-0.1188,0,-0.1491,-0.1458,-0.1439,-0.1413,-0.1395,-0.1375,-0.1359,-0.1337,-0.132,-0.1301,-0.1282,-0.1261,-0.1253,-0.1243,-0.1231,-0.1211,-0.1202,-0.1211,-0.1183,-0.1182,-0.119,-0.1188,-0.1194,-0.1185,-0.1186,-0.1186,-0.1186,0,-0.1481,-0.1459,-0.1432,-0.1402,-0.1393,-0.1379,-0.1353,-0.1336,-0.131,-0.1298,-0.128,-0.1264,-0.1243,-0.124,-0.121,-0.1216,-0.1203,-0.1191,-0.119,-0.1186,-0.1184,-0.1184,-0.1182,-0.1181,-0.1183,-0.1183,-0.1183,0,-0.1492,-0.1456,-0.1435,-0.1423,-0.1387,-0.1377,-0.1362,-0.1336,-0.1321,-0.1298,-0.1288,-0.1263,-0.1249,-0.1229,-0.1207,-0.1207,-0.1178,-0.1174,-0.1167,-0.1168,-0.1162,-0.1163,-0.1158,-0.1154,-0.1154,-0.1154,-0.1154,0,-0.1488,-0.1472,-0.1439,-0.1427,-0.1408,-0.1384,-0.1366,-0.1349,-0.1326,-0.1309,-0.129,-0.1274,-0.1245,-0.1225,-0.1208,-0.1185,-0.1178,-0.1168,-0.1163,-0.1169,-0.1171,-0.1161,-0.1161,-0.1154,-0.1154,-0.1154,-0.1154,0,-0.1497,-0.1475,-0.1451,-0.1418,-0.141,-0.1397,-0.1369,-0.1355,-0.1337,-0.1315,-0.1309,-0.128,-0.1255,-0.1231,-0.1198,-0.1185,-0.1163,-0.1157,-0.1172,-0.1169,-0.1164,-0.1165,-0.1152,-0.1149,-0.1148,-0.1148,-0.1148,0,-0.1496,-0.1484,-0.145,-0.1437,-0.1422,-0.1402,-0.1387,-0.1363,-0.1348,-0.1317,-0.1307,-0.1281,-0.1259,-0.122,-0.1196,-0.117,-0.1163,-0.116,-0.1159,-0.1165,-0.1162,-0.1164,-0.1162,-0.1161,-0.1161,-0.1161,-0.1161,0,-0.1497,-0.1486,-0.1466,-0.1441,-0.1423,-0.1403,-0.1381,-0.1371,-0.1343,-0.1327,-0.1302,-0.1285,-0.1251,-0.1225,-0.1196,-0.1179,-0.1165,-0.1162,-0.1159,-0.1165,-0.1175,-0.1169,-0.1174,-0.1162,-0.1162,-0.1162,-0.1162,-0.1162,-0.1501,-0.1488,-0.1463,-0.144,-0.1421,-0.1401,-0.1387,-0.1366,-0.1345,-0.1316,-0.1303,-0.1278,-0.1251,-0.1211,-0.1194,-0.1173,-0.1169,-0.1165,-0.1164,-0.1163,-0.1165,-0.1178,-0.1167,-0.1167,-0.1167,-0.1167,-0.1167,0,-0.15,-0.1482,-0.1462,-0.1432,-0.1414,-0.1403,-0.1379,-0.1364,-0.1342,-0.1319,-0.1297,-0.1268,-0.1242,-0.1216,-0.1188,-0.1177,-0.117,-0.117,-0.1171,-0.1167,-0.1169,-0.1175,-0.1176,-0.1176,-0.1176,-0.1176,-0.1176,-0.1176,-0.1497,-0.1476,-0.1462,-0.143,-0.1412,-0.1388,-0.1375,-0.1356,-0.1337,-0.1305,-0.1284,-0.1267,-0.1242,-0.1212,-0.1188,-0.1181,-0.1171,-0.1174,-0.1165,-0.1168,-0.1167,-0.1166,-0.1171,-0.1172,-0.1172,-0.1164,-0.1164,-0.1164]},{"header":{"parameterUnit":"m.s-1","parameterCategory":1,"la1":30.2991,"la2":30.254,"lo1":-89.0895,"lo2":-89.0444,"dy":0.0017,"dx":0.0017,"nx":28,"ny":28,"refTime":"2024-06-07T09:00:00:Z","depth":0,"parameterNumber":3,"parameterNumberName":"V-component_of_WINDS"},"data":[0,0,0,0,0,0,0,0,0,0,0,0,0,0,0,0,0,0,0,0,0,0,0,0,0,0,0,0,0,0,0,0,0,0,0,0,0,0,0,0,0,0,0,0,0,0,0,0,0,0,0,0,0,0,0,0,0,0,-2.0223,-2.0224,0,-2.0243,-2.0243,-2.0243,-2.0232,-2.0231,-2.0231,-2.023,-2.0248,-2.0249,-2.025,0,0,0,0,0,0,0,0,0,0,0,0,0,-2.0176,-2.0177,-2.0223,-2.0224,-2.0224,-2.0243,-2.0243,-2.0243,-2.0232,-2.0231,-2.0231,-2.023,-2.0248,-2.0249,-2.025,0,0,0,0,0,0,0,0,0,0,0,0,0,-2.0196,-2.0178,-2.0223,-2.0221,-2.0221,-2.0243,-2.0243,-2.0243,-2.0232,-2.0231,-2.023,-2.023,-2.0248,-2.0249,-2.025,-2.0276,0,0,-2.0255,-2.0256,0,0,0,0,0,0,0,0,-2.0195,-2.0198,-2.0221,-2.0221,-2.0221,-2.0234,-2.0233,-2.0254,-2.0232,-2.0228,-2.023,-2.0229,-2.0244,-2.0246,-2.0251,-2.0277,-2.0277,-2.0255,-2.0256,-2.0257,-2.0257,0,0,0,0,0,0,0,-2.0194,-2.0197,-2.0231,-2.0221,-2.0221,-2.0218,-2.022,-2.0237,-2.024,-2.0228,-2.0227,-2.023,-2.0244,-2.025,-2.0251,-2.0278,-2.0255,-2.0256,-2.0257,-2.0258,-2.0326,-2.0327,0,0,0,0,0,0,-2.0193,-2.0196,-2.023,-2.0231,-2.0206,-2.022,-2.0222,-2.0231,-2.024,-2.0241,-2.023,-2.0229,-2.0248,-2.025,-2.0252,-2.0283,-2.0257,-2.0258,-2.0259,-2.0325,-2.0326,-2.0327,0,0,0,0,0,0,-2.0192,-2.0196,-2.023,-2.0214,-2.0218,-2.0221,-2.0231,-2.0231,-2.0237,-2.0242,-2.0242,-2.0236,-2.0247,-2.025,-2.027,-2.0284,-2.0259,-2.026,-2.0324,-2.0325,-2.0327,-2.0345,0,0,0,0,0,0,-2.019,-2.0196,-2.0205,-2.0214,-2.0219,-2.0248,-2.0232,-2.0232,-2.024,-2.0239,-2.0247,-2.0248,-2.0247,-2.0268,-2.0272,-2.0285,-2.0261,-2.0323,-2.0325,-2.0326,-2.0344,-2.0347,-2.035,0,0,0,0,0,-2.0189,-2.0209,-2.0206,-2.021,-2.0231,-2.0249,-2.0251,-2.025,-2.0241,-2.0251,-2.0254,-2.0247,-2.0282,-2.027,-2.0274,-2.0288,-2.0322,-2.0324,-2.0326,-2.0342,-2.0346,-2.035,0,0,0,0,0,0,-2.0201,-2.021,-2.0207,-2.023,-2.0239,-2.0247,-2.0259,-2.0255,-2.0266,-2.0264,-2.0261,-2.0264,-2.0285,-2.0289,-2.0276,-2.0314,-2.03,-2.0303,-2.0311,-2.0315,-2.0319,-2.0318,-2.0262,0,0,0,0,0,-2.0207,-2.0221,-2.0228,-2.0248,-2.0252,-2.0255,-2.0263,-2.0261,-2.027,-2.0273,-2.0278,-2.0286,-2.0299,-2.0307,-2.0319,-2.0344,-2.0346,-2.0356,-2.0359,-2.0362,-2.0365,-2.0379,-2.0384,-2.0334,-2.0334,-2.0334,0,0,-2.0218,-2.0225,-2.0233,-2.0251,-2.0257,-2.0272,-2.0258,-2.0274,-2.0285,-2.0275,-2.0295,-2.0299,-2.0308,-2.0331,-2.0342,-2.0335,-2.0379,-2.0364,-2.0367,-2.0368,-2.0382,-2.0387,-2.0391,-2.0336,-2.0335,-2.0335,0,0,-2.0246,-2.0253,-2.0271,-2.0278,-2.0289,-2.029,-2.0295,-2.0304,-2.0306,-2.0326,-2.032,-2.0333,-2.0354,-2.0361,-2.0368,-2.0401,-2.0395,-2.0404,-2.0422,-2.0437,-2.0441,-2.0444,-2.0457,-2.0461,-2.0407,-2.0407,-2.0407,0,-2.0259,-2.0281,-2.0281,-2.0298,-2.0306,-2.0299,-2.0318,-2.0324,-2.0338,-2.0343,-2.0336,-2.0364,-2.0369,-2.0395,-2.0403,-2.0408,-2.0413,-2.0404,-2.044,-2.0444,-2.0447,-2.0459,-2.0464,-2.0408,-2.0408,-2.0408,-2.0408,0,-2.0297,-2.0313,-2.0326,-2.0341,-2.035,-2.0368,-2.037,-2.0379,-2.0377,-2.038,-2.0401,-2.0408,-2.0421,-2.0427,-2.0425,-2.0453,-2.0448,-2.044,-2.0427,-2.0453,-2.0464,-2.0469,-2.041,-2.0409,-2.0409,-2.0409,0,0,-2.0333,-2.0348,-2.0353,-2.0361,-2.0372,-2.0384,-2.0401,-2.0416,-2.0425,-2.0434,-2.0449,-2.0468,-2.0462,-2.0469,-2.0467,-2.048,-2.0507,-2.0471,-2.0471,-2.0478,-2.0539,-2.0546,-2.0551,-2.0503,-2.0504,-2.0505,-2.0539,0,-2.0363,-2.0395,-2.0395,-2.0424,-2.0439,-2.0434,-2.0449,-2.0458,-2.0461,-2.0474,-2.0477,-2.0491,-2.0481,-2.0485,-2.0497,-2.0501,-2.0519,-2.0499,-2.0518,-2.0518,-2.0516,-2.0557,-2.0564,-2.0595,-2.0543,-2.0544,-2.0544,0,-2.0403,-2.0415,-2.0446,-2.0457,-2.0463,-2.0477,-2.0491,-2.0503,-2.0513,-2.0515,-2.0524,-2.0521,-2.0539,-2.0524,-2.0549,-2.0535,-2.0543,-2.0546,-2.0547,-2.055,-2.0534,-2.0561,-2.0605,-2.0611,-2.0551,-2.0551,-2.055,0,-2.0428,-2.0452,-2.0474,-2.048,-2.0493,-2.0503,-2.0508,-2.0518,-2.0527,-2.0539,-2.0545,-2.0558,-2.0566,-2.0576,-2.0577,-2.0566,-2.0603,-2.0588,-2.0605,-2.0605,-2.0613,-2.0613,-2.066,-2.0617,-2.0617,-2.0617,-2.0616,0,-2.0462,-2.0481,-2.0485,-2.0499,-2.0521,-2.0521,-2.0542,-2.0547,-2.0556,-2.057,-2.0565,-2.0579,-2.0579,-2.0593,-2.0593,-2.0615,-2.0618,-2.062,-2.062,-2.0621,-2.0621,-2.0626,-2.0624,-2.0618,-2.0618,-2.0617,-2.0617,0,-2.0493,-2.0497,-2.0521,-2.0531,-2.0534,-2.055,-2.0559,-2.0572,-2.0575,-2.0594,-2.0598,-2.0603,-2.0619,-2.0621,-2.0639,-2.064,-2.0666,-2.0663,-2.0663,-2.0663,-2.068,-2.0679,-2.0733,-2.0741,-2.0692,-2.0692,-2.0693,0,-2.0515,-2.053,-2.0543,-2.0553,-2.0559,-2.0575,-2.0585,-2.0586,-2.0596,-2.0609,-2.0621,-2.0637,-2.065,-2.0676,-2.0681,-2.0695,-2.0693,-2.0711,-2.0695,-2.0696,-2.0695,-2.0694,-2.0696,-2.0715,-2.0715,-2.0716,-2.0716,0,-2.0554,-2.0555,-2.057,-2.0585,-2.0597,-2.0609,-2.0621,-2.0629,-2.0631,-2.0643,-2.066,-2.067,-2.069,-2.0706,-2.0721,-2.0726,-2.0722,-2.0721,-2.0726,-2.0727,-2.0727,-2.0729,-2.0672,-2.072,-2.0719,-2.0719,-2.0719,-2.0719,-2.0582,-2.0595,-2.0607,-2.0624,-2.0633,-2.0644,-2.0657,-2.0663,-2.0677,-2.0694,-2.0693,-2.0713,-2.0723,-2.0742,-2.0749,-2.0764,-2.0758,-2.0765,-2.0766,-2.0768,-2.0771,-2.0724,-2.0766,-2.0766,-2.0766,-2.0766,-2.0766,0,-2.0621,-2.0629,-2.0644,-2.0661,-2.0675,-2.067,-2.0683,-2.0694,-2.0711,-2.0722,-2.0735,-2.0755,-2.0771,-2.0778,-2.0793,-2.0804,-2.0803,-2.0808,-2.0808,-2.081,-2.0775,-2.0769,-2.081,-2.081,-2.081,-2.0809,-2.0809,-2.0809,-2.0644,-2.0667,-2.067,-2.0698,-2.0705,-2.0725,-2.0733,-2.0743,-2.0752,-2.0775,-2.0789,-2.0793,-2.0802,-2.0819,-2.0833,-2.0835,-2.0841,-2.0848,-2.0849,-2.0816,-2.0812,-2.0808,-2.0803,-2.0849,-2.0849,-2.0883,-2.0883,-2.0883]}]]